Weather History for 07684 - September, 2013

Change the Weather History Date:

Saturday, September 21, 2013

  Actual Average Record
Temperature  
Mean Temperature 66 °F -  
Max Temperature 75 °F 69 °F - ()
Min Temperature 57 °F 57 °F - ()
Cooling Degree Days 1    
Growing Degree Days 16 (Base 50)    
Moisture  
Dew Point 57 °F    
Average Humidity 73    
Maximum Humidity 82    
Minimum Humidity 53    
Precipitation  
Precipitation 0.00 in - - ()
Sea Level Pressure  
Sea Level Pressure 30.10 in    
Wind  
Wind Speed 3 mph ()    
Max Wind Speed 10 mph    
Max Gust Speed -    
Visibility 6.2 miles    
Events      
T = Trace of Precipitation, MM = Missing Value Source: Averaged Metar Reports

Daily Weather History Graph

Daily Weather History Graph

Search for Another Location

Airport or City:

Trip Planner

Search our weather history database for the weather conditions in past years. The results will help you decide how hot, cold, wet, or windy it might be!

Date:

Astronomy

Sep. 21, 2013 Rise Set
Actual Time 7:18 AM CEST 7:31 PM CEST
Civil Twilight 6:49 AM CEST 7:59 PM CEST
Nautical Twilight 6:16 AM CEST 8:33 PM CEST
Astronomical Twilight 5:41 AM CEST 9:07 PM CEST
Moon 8:26 PM CEST (9/21) 9:24 AM CEST (9/21)
Length of Visible Light 13h 10m
Length of Day
12h 13m
Waning Gibbous, 95% of the Moon is Illuminated
Sep 21
Waning Gibbous
Sep 27
Last Quarter
Oct 5
New
Oct 12
First Quarter
Oct 19
Full

Hourly Weather History & Observations

Time (CEST) Temp. Dew Point Humidity Pressure Visibility Wind Dir Wind Speed Gust Speed Precip Events Conditions
12:00 AM 62.6 °F 53.6 °F 72% 30.04 in 6.2 mi Variable 2.3 mph - N/A   Unknown
12:30 AM 60.8 °F 53.6 °F 77% 30.04 in 6.2 mi Variable 2.3 mph - N/A   Unknown
1:00 AM 60.8 °F 53.6 °F 77% 30.04 in 6.2 mi Variable 2.3 mph - N/A   Unknown
1:30 AM 59.0 °F 53.6 °F 82% 30.04 in 6.2 mi Variable 2.3 mph - N/A   Unknown
2:00 AM 59.0 °F 53.6 °F 82% 30.04 in 6.2 mi Variable 3.5 mph - N/A   Unknown
2:30 AM 59.0 °F 53.6 °F 82% 30.04 in 6.2 mi Variable 3.5 mph - N/A   Unknown
3:00 AM 59.0 °F 53.6 °F 82% 30.04 in 6.2 mi North 3.5 mph - N/A   Unknown
3:30 AM 57.2 °F 51.8 °F 82% 30.04 in 6.2 mi Variable 2.3 mph - N/A   Unknown
4:00 AM 57.2 °F 51.8 °F 82% 30.04 in 6.2 mi NNE 4.6 mph - N/A   Unknown
4:30 AM 57.2 °F 51.8 °F 82% 30.04 in 6.2 mi North 3.5 mph - N/A   Unknown
5:00 AM 57.2 °F 51.8 °F 82% 30.04 in 6.2 mi Variable 2.3 mph - N/A   Unknown
5:30 AM 57.2 °F 51.8 °F 82% 30.06 in 6.2 mi NNE 3.5 mph - N/A   Unknown
6:00 AM 57.2 °F 51.8 °F 82% 30.06 in 6.2 mi North 3.5 mph - N/A   Unknown
6:30 AM 57.2 °F 51.8 °F 82% 30.06 in 6.2 mi North 4.6 mph - N/A   Unknown
7:00 AM 57.2 °F 51.8 °F 82% 30.06 in 6.2 mi Variable 3.5 mph - N/A   Unknown
7:30 AM 57.2 °F 51.8 °F 82% 30.09 in 6.2 mi North 4.6 mph - N/A   Unknown
8:00 AM 57.2 °F 51.8 °F 82% 30.09 in 6.2 mi North 3.5 mph - N/A   Unknown
8:30 AM 59.0 °F 51.8 °F 77% 30.09 in 6.2 mi NNE 4.6 mph - N/A   Unknown
9:00 AM 62.6 °F 53.6 °F 72% 30.09 in 6.2 mi North 3.5 mph - N/A   Unknown
9:30 AM 66.2 °F 55.4 °F 68% 30.09 in 6.2 mi Variable 2.3 mph - N/A   Unknown
10:00 AM 69.8 °F 57.2 °F 64% 30.12 in 6.2 mi Calm Calm - N/A   Unknown
10:30 AM 71.6 °F 62.6 °F 73% 30.12 in 6.2 mi South 4.6 mph - N/A   Unknown
11:00 AM 71.6 °F 60.8 °F 69% 30.12 in 6.2 mi SSW 4.6 mph - N/A   Unknown
11:30 AM 73.4 °F 60.8 °F 65% 30.12 in 6.2 mi South 5.8 mph - N/A   Unknown
12:00 PM 75.2 °F 62.6 °F 65% 30.12 in 6.2 mi South 6.9 mph - N/A   Unknown
12:30 PM 73.4 °F 62.6 °F 69% 30.12 in 6.2 mi SSE 8.1 mph - N/A   Unknown
1:00 PM 73.4 °F 64.4 °F 73% 30.12 in 6.2 mi SSE 9.2 mph - N/A   Unknown
1:30 PM 73.4 °F 64.4 °F 73% 30.15 in 6.2 mi South 10.4 mph - N/A   Unknown
2:00 PM 73.4 °F 64.4 °F 73% 30.12 in 6.2 mi SSE 8.1 mph - N/A   Unknown
2:30 PM 73.4 °F 62.6 °F 69% 30.12 in 6.2 mi South 8.1 mph - N/A   Unknown
3:00 PM 73.4 °F 60.8 °F 65% 30.12 in 6.2 mi South 6.9 mph - N/A   Unknown
3:30 PM 75.2 °F 62.6 °F 65% 30.12 in 6.2 mi South 4.6 mph - N/A   Unknown
4:00 PM 75.2 °F 60.8 °F 61% 30.12 in 6.2 mi Variable 3.5 mph - N/A   Unknown
4:30 PM 75.2 °F 60.8 °F 61% 30.12 in 6.2 mi South 4.6 mph - N/A   Unknown
5:00 PM 75.2 °F 59.0 °F 57% 30.12 in 6.2 mi South 4.6 mph - N/A   Unknown
5:30 PM 75.2 °F 57.2 °F 53% 30.12 in 6.2 mi South 3.5 mph - N/A   Unknown
6:00 PM 75.2 °F 57.2 °F 53% 30.12 in 6.2 mi South 3.5 mph - N/A   Unknown
6:30 PM 73.4 °F 57.2 °F 57% 30.12 in 6.2 mi South 3.5 mph - N/A   Unknown
7:00 PM 71.6 °F 57.2 °F 60% 30.12 in 6.2 mi South 3.5 mph - N/A   Unknown
7:30 PM 69.8 °F 60.8 °F 73% 30.12 in 6.2 mi South 2.3 mph - N/A   Unknown
8:00 PM 68.0 °F 59.0 °F 73% 30.15 in 6.2 mi Variable 1.2 mph - N/A   Unknown
8:30 PM 66.2 °F 57.2 °F 73% 30.15 in 6.2 mi Variable 3.5 mph - N/A   Unknown
9:00 PM 64.4 °F 55.4 °F 73% 30.15 in 6.2 mi Variable 3.5 mph - N/A   Unknown
9:30 PM 64.4 °F 55.4 °F 73% 30.15 in 6.2 mi Variable 2.3 mph - N/A   Unknown
10:00 PM 62.6 °F 55.4 °F 77% 30.15 in 6.2 mi Variable 2.3 mph - N/A   Unknown
10:30 PM 62.6 °F 55.4 °F 77% 30.15 in 6.2 mi Variable 2.3 mph - N/A   Unknown
11:00 PM 62.6 °F 55.4 °F 77% 30.18 in 6.2 mi NNE 3.5 mph - N/A   Unknown
11:30 PM 62.6 °F 55.4 °F 77% 30.18 in 6.2 mi Variable 2.3 mph - N/A   Unknown